Weather in Bub

Russia / Perm Krai     58°17′35″N   54°23′01″E
temp.,
°C
wind,
m/s
gust,
m/s
humid.,
%
clouds,
%
prec.,
mm/h
press.,
hPa
HPBL,
m
27 february, sat
sat2723:00−20sse4129699 0.0 1017338
02:00−20se4129597 0.0 1014326
05:00−19se5129598 0.0 1012419
08:00−18ese51292100 0.0 1010432
11:00−16ese61089100 0.0 1009553
14:00−14ese5991100 0.1 1007559
17:00−13e5990100 0.3 1008626
20:00−14e4109499 0.2 1008412
28 february, sun
sun2823:00−17ene499599 0.2 1009260
02:00−20ene4897100 0.0 1009181
05:00−23ne4798100 0.0 1009160
08:00−23ne479887 0.0 1010160
11:00−20ne489491 0.0 1010337
14:00−16ne4790100 0.0 1010486
17:00−15ne4789100 0.1 1011611
20:00−17nne3597100 0.1 1013133
1 march, mon
mon123:00−19ne339999 0.1 101548
02:00−22nne339861 0.0 101628
05:00−23nne239730 0.0 101825
08:00−24nne23970 0.0 101920
11:00−19n22910 0.0 1020178
14:00−15wsw008444 0.0 1019306
17:00−13wsw128247 0.0 1019344
20:00−17ssw339219 0.0 101722
2 march, tue
tue223:00−19ssw34979 0.0 101653
02:00−19ssw479880 0.0 1014141
05:00−16ssw5109288 0.0 1011335
08:00−16s61292100 0.0 1008343
11:00−16s61294100 0.4 1006390
14:00−13s61192100 0.4 1004514
17:00−12s61093100 0.9 1003591
20:00−12s51094100 0.8 1002518
3 march, wed
wed323:00−12s3895100 1.3 1002356
02:00−13sse2496100 0.4 1002111
05:00−13sse2396100 0.6 100281
08:00−13s2296100 0.4 100163
11:00−11ssw119199 0.6 1002192
14:00−8nw1187100 0.2 1001388
17:00−7w0187100 0.3 1002270
20:00−9sw119698 0.1 100222